SKYNET 5A

Last updated on Nov. 13, 2019, 4:20 a.m. UTC

1 30794U 07007B   19316.78005218 -.00000257  00000-0  00000+0 0  9992
2 30794   0.0865  48.1230 0003623 187.4552 192.0684  1.00270053 46501
UTC
Height (km)
Latitude
Longitude
Inclination
Orbital Period
UTC large
Height (km)
Speed (km/s)
/
Latitude / Longitude
Inclination (degrees)
Orbital Period (minutes)
Azimuth
Elevation
Range (km)
Doppler Factor
iOS Compass Heading
iOS Angle

Next 30 passes for location: Hong Kong

Rise time Rise Azimuth (degrees) Set time Set Azimuth (degrees) Duration Max altitude (degrees)

No matching passes for this satellites